[Date Prev][Date Next][Thread Prev][Thread Next][Date Index][Thread Index]

[jamsat-news:1286] jas2info #192



========================   最新情報   ==============================

        Last updated :Tue.13-Jun.-2000  20:00 (JST) #192
====================================================================
   
  1)アマチュア通信衛星情報 FOシリーズの軌道要素、テレメトリ、
   QSOの状況等をまとめてみました.
   
   FO−29の6月13日(火)のテレメトリはJARLのホームページの
  運用予定のとうり12:01(JST)のパスではアナログ運用に変わって
  おりました、CWテレメトリを受信しましたので掲載しておきます.

 AS18875C1   13Jun2000
 12:02-12:19(JST)
 Freq.435.804-.788MHz
                                              60 92 90 B0 96 BD BA BA BB B8 
 HI HI A6 C7 81 D5 17 48 FF 0D 00 2E 72 58 85 60 92 91 B0 7A BD BA BA BB B8 
 HI HI A6 C7 81 D5 1C 48 FF 0D 00 2E 44 86 6D 4E 95 92 B0 96 BD BA BB BB B8 
 HI HI A6 C7 81 D5 01 48 FF 0D 00 2E 6E 48 7E 60 92 91 A0 7D BD BA BA BB B8 
 HI HI A6 C7 81 D5 06 48 0A 0D 00 2E 59 98 76 60 93 90 B0 78 BD BA BA BC B8 
 HI HI A6 C7 81 D5 0B 48 FF 0D 00 2E 53 42 86 42 94 92 B0 74 BD B9 BA BB B8 
 HI HI A6 C7 81 D5 10 48 FF 0D 00 2E 65 72 8E 60 92 90 B0 80 BD B9 BA BB B8
 HI HI A6 C7 81 D5 00 48 FF 0D 00 2E 68 A2 Z1 60 93 92 A1 76 BD B9 BA BB B9 
 HI HI A6 C7 81 D5 05 48 FF 0D 90 2E 72 37 83 60 93 91 B9 DB BC B8 BA BB B8 
 HI HI A6 C7 81 D5 0A 48 FF 0D 00 2E 82 9B 7E 60 93 91 B0 9A BD B8 BA BB B9 
 HI HI A6 C7 81 D5 10 48 0A 0D 00 2E 4D 5D 79 60 92 90 B0 83 BD B8 BA BB B8 
 HI HI A6 07 81 D5 15 48 FF 0D 00 2E A0 68 8A 60 92 90 B0 8F BC B8 B9 BB B8 
 HI HI A6 C7 81 D5 1A 48 FF 0D 00 2E 51 5B 6A 60 92 90 B0 8B BD B8 B9 BB B9 
 HI HI A6 C7 81 D5 08 48 FF 0D 00 2E 8E 46 85 60 92 90 B0 75 BC B8 B9 BB B8 
 HI HI A6 C7 81 D5 05 48 FF 0D 00 2E 7D AB 6D 60 92 90 B0 8A BF B8 B9 BB B9  
 HI HI A6 07 81 D5 0A 48 FF 0D 00 2E 6E 62 76 60 92 90 B0 8B BC B7 B9 BB B9 
 HI HI A6 C7 81 D5 0F 48 FF 0D 00 2E 9F 81 73 60 93 91 B0 93 BC B7 B9 BB B9 
 HI HI A6 C7 81 D5 15 48 FF 0A 00 3E 65 9D 63 52 94 92 B0 66 BC B7 B9 BB B9 
 HI HI A6 C7 81 D5 1A 48 FF 0D 00 2E 9E 73 87 5F 92 90 B0 81 BC B7 B8 BB B9
 HI HI A6 C7 81 D5 1F 48 FF 0D 00 2E 7A AF 61 60 93 90 B1 79 BC B7 B8 BB B9 
  
 ------------------------ FO-29の軌道要素 ------------------------------        
 
  ■ 軌道要素1:「jamsat−keps:999」より         
            SB KEPS @ AMSAT  $ORB00155.N
            2Line Orbital Elements 00155.AMSAT

 HR AMSAT ORBITAL ELEMENTS FOR AMATEUR SATELLITES IN NASA FORMAT
 FROM WA5QGD FORT WORTH,TX June 3, 2000
 SEND SUBSCRIBE/UNSUBSCRIBE TO majordomo@amsat.org ONLY
 BID: ORB00155.N

  DECODE 2-LINE ELSETS WITH THE FOLLOWING KEY:
  1 AAAAAU 00  0  0 BBBBB.BBBBBBBB  .CCCCCCCC  00000-0  00000-0 0  DDDZ
  2 AAAAA EEE.EEEE FFF.FFFF GGGGGGG HHH.HHHH III.IIII JJ.JJJJJJJJKKKKKZ
  KEY: A-CATALOGNUM B-EPOCHTIME C-DECAY D-ELSETNUM E-INCLINATION F-RAAN
  G-ECCENTRICITY H-ARGPERIGEE I-MNANOM J-MNMOTION K-ORBITNUM Z-CHECKSUM
  TO ALL RADIO AMATEURS BT

 FO-29
 1 24278U 96046B   00155.28738282 -.00000002  00000-0  37240-4 0  3345
 2 24278  98.5882  64.9673 0350293 263.0402  93.0779 13.52724071187417

 ■ 軌道要素2:「jamsat−keps:1000」より                    
         SB KEPS @ AMSAT  $ORB00155.O
         Orbital Elements  00155.OSCAR

 HR AMSAT ORBITAL ELEMENTS FOR OSCAR SATELLITES
 FROM WA5QGD FORT WORTH,TX June 3, 2000
 SEND SUBSCRIBE/UNSUBSCRIBE TO majordomo@amsat.org ONLY
 BID: ORB00155.O
 TO ALL RADIO AMATEURS BT
 
  Satellite: FO-29
 Catalog number: 24278
 Epoch time:      00155.28738282
 Element set:     334
 Inclination:       98.5882 deg
 RA of node:        64.9673 deg
 Eccentricity:    0.0350293
 Arg of perigee:   263.0402 deg
 Mean anomaly:      93.0779 deg
 Mean motion:   13.52724071 rev/day
 Decay rate:       -2.0e-08 rev/day^2
 Epoch rev:           18741
 Checksum:              312

-------------------  FO-29(JAS-2)のテレメトリに関する情報  ----------------------
 
 2)6月13日(火)のテレメトリの最後の行の変換例です.

  AS18875C1   13Jun2000
  12:02-12:19(JST)
  Freq.435.804-.788MHz
 
  HI HI A6 C7 81 D5 1F 48 FF 0D 00 2E 7A AF 61 60 93 90 B1 79 BC B7 B8 BB B9 
  
 テレメトリ  	内   容	    	換算値	単 位  
 3C	磁気センサーZ軸=	59803.9	[nT]
 3D	磁気センサX軸	=	85784.3	[nT]
 4A	太陽電池発生電流=	  951.0	[mA]
 4B	B充放電電流	=	 -118.4	[mA]
 4C	B端子電圧	=	   15.8	[V]
 4D	B中間端子電圧	=	    6.9	[V]
 5A	バス電圧 	=	   17.4	[V]
 5B	JTA送信電力	=	  688.4	[mW]
 5C 	構体温度1	=	    8.9	[℃]
 5D	構体温度2	=	   10.8	[℃]
 6A	構体温度3	=	   10.4	[℃]
 6B	構体温度4	=	    9.3	[℃]
 6C	Bセル温度	=	   10.0	[℃]

 * OSはWindows 2000,Office 2000 にて計算処理.
 
 ===========================  FO-29(ふじ3号)のQSO情報等 ======================
   
 3) [jamsat-bb:5371]にJG1LDV局 白子氏が「 宇宙ウグイスは元気です」として
   投稿されてましたので転載させて頂きました.

  皆さん、今日わ。  JG1LDV白子です。

  今朝も「宇宙ウグイス(ふじ3号デジトーカ)」が元気で囀っていました。

 関西ハムフェスタでのデモも、あと1パス?となりましたが、多くの方に
 宇宙通信に興味を持っていただけると良いですね。

 JARLでは、アマチュア衛星通信の啓蒙や課外授業の教材として
 今後もデジトーカ運用を企画するようですので楽しみです。

                              73
 ==========================
 宇宙開発に関する話題を発信している、
 SSCnote.ホームページ:宇宙をもっと身近に!のURLは、
 http://www2s.biglobe.ne.jp/~gshirako/
 です。
 ここでも「宇宙ウグイス」をPRしています。ご笑覧下さい。
 ==========================
 ===============================================================================
   4)JARL のホームページに運用予定が記載されていましたのでご紹介します.
       ( http://www.jarl.or.jp/Japanese/3_Fuji/new/uy.htm )

        ■ ふじ3号/FOー29/JAS-2 ■  
   
     *** 運用予定について ***

 ☆☆ 待望のデジトーカ運用を5日間運用開始 ☆☆
  
    6月13日 〜 7月02日  アナログ系運用 

  *なお,運用予定は都合により変更することがありますのでご了承願います。

 照会先 : lab@jarl.or.jp

 最新の情報はテレホンサービス(03−3942−1000)をお聞きください。  
 以後の運用につきましては6月下旬にお知らせいたします。

-----------------------    FO−20(JAS-1b)道要素   -------------------------
  5)
  ■ 軌道要素1 :出典はFO-29「ふじ3号」に同じ.
  
  FO-20
 1 20480U 90013C   00155.42670712 -.00000005  00000-0  51757-4 0  2300
 2 20480  99.0516 288.4084 0541034  86.4134 279.8648 12.83274509483519
 
  ■ 軌道要素2 :出典はFO−29「ふじ3号」に同じ.
               
  Satellite: FO-20
 Catalog number: 20480
 Epoch time:      00155.42670712
 Element set:     230
 Inclination:       99.0516 deg
 RA of node:       288.4084 deg
 Eccentricity:    0.0541034
 Arg of perigee:    86.4134 deg
 Mean anomaly:     279.8648 deg
 Mean motion:   12.83274509 rev/day
 Decay rate:       -5.0e-08 rev/day^2
 Epoch rev:           48351
 Checksum:              292

 --------------------------------------------------------------------------------
 
         ■ ふじ2号/FO−20/JAS-1b ■      
            
          「ふじ2号」 現況                                                                                  
             
   JAS-1b(ふじ2号)のCWテレメトリ信号に,1997年10月12日12時(JST)の
 日本上空通過時,3桁の数字が繰り返されるはずが3個の長音の繰り返しとなっているという
 異常が発見されました。この不具合は次の通過時からは回復していましたが13日15時20分の
 通過時に再び観測されました。現在はA0の送信が続いています。衛星のアナログ系中継モード
 動作は異常が無く,正常時のテレメトリ内容からは衛星の動作に異常は認められません。従って,
 直ちに衛星のミッションに影響することは無いと予想されますので,当面はアナログ系中継
 モードを継続します。衛星は既に打ち上げてから7年8ヶ月を経ておりますので,今後は監視を
 強化する予定です。アマチュア各位のレポートをお待ちします。
 -------------------------------------------------------------------------------- 
  1997年10月14日 00時35分 確認のテレメトリ音 151 KB (A0) 
  1997年10月14日 11時10分 確認のテレメトリ音 216 KB (異常キーイング) 

  以上 JARLのホ−ムページの http://www.jarl.or.jp/Japanese/3_Fuji/new/fuji.htm

===================== FO-20 ふじ2号 のテレメトリ観測結果 ====================

   6月3日(土)の14:15(JST)のパスの観測結果では以前観測した結果よりも変動のない
 単一周波数でドップラー効果で周波数がずれていくのみの状態に戻っておりました。
                                         
   =============   JAS-2 (ふじ3号)と現在までの情報   ===========
  
  A.電話によるふじ3号の運用情報
      社団法人日本アマチュア連盟によるサービス
           TEL .   03− 3942 − 1000
  B.アマチュア無線FAXサービス
      JARLによるふじ3号の軌道情報(オービットカレンダー)
         FAX No.  03− 3233 −0055
  C.WWWブラウザで情報を簡単に見れる人のためにJAS−2
     ふじ3号の衛星としての運用されるまでの名前)の概要、打ち上げ
     までの状況、運用中における状況を説明したホームページを紹介し
     ておきます.
     社団法人日本アマチュア無線連盟(JARL)のホームページ

          http://www.jarl.or.jp/Japanese/3_Fuji/jasmenu.htm
 
     宇宙開発事業団(NASDA)ホームページ 
          http://www.nasda.go.jp/
         打上げ衛星 :地球観測プラットフォーム技術衛星(ADEOS) 
                       アマチュア衛星3号(JAS-2)
          http://yyy.tksc.nasda.go.jp/Home/Press/Press-j/jas-2_j.html        

  D.JAMSATによる軌道情報の活用
        JAMSATのホームページまたはjamsat−kepsの軌道要素より
      衛星の軌道情報を得る.
     JAMSATホームページ
               URL    http://www.jamsat.or.jp
       上記ホームページでは各地で行われるアマチュア通信衛星に関する
      ミューティングのお知らせや世界のアマチュア衛星に関する情報が
      満載されています.
 ========================================================================  
     JAMSATのメンバーのご協力によりJH6MME(高山 秀造)が
    執筆・編集を担当しております.ご指摘の意見、疑問やこのようにしたら
    というアイデアがありましたら小さなことでもかまいませんので気軽に下
    記アドレスまでご連絡ください.jamsat−newsからjas2
    infoへの転載をJH4PHW局坂井さんに担当して頂いております.  
                  E-mail : jh6mme@jamsat.or.jp : jh4phw@jamsat.or.jp
 ===============================   END  ===============================